Lentran, United Kingdom

7:21 AM GMT on December 03, 2016 (GMT +0000)
Inverness

Weather History for EGPE - November, 2012

Change the Weather History Date:

Friday, November 23, 2012

  Actual Average Record
Temperature  
Mean Temperature 38 °F -  
Max Temperature 44 °F 44 °F 51 °F (1999)
Min Temperature 32 °F 34 °F 23 °F (1997)
Degree Days  
Heating Degree Days 27    
Moisture  
Dew Point 35 °F    
Average Humidity 87    
Maximum Humidity 100    
Minimum Humidity 81    
Precipitation  
Precipitation 0.00 in - - ()
Sea Level Pressure  
Sea Level Pressure 29.48 in    
Wind  
Wind Speed 9 mph ()    
Max Wind Speed 17 mph    
Max Gust Speed -    
Visibility 6.2 miles    
Events Rain    
Averages and records for this station are not official NWS values.
T = Trace of Precipitation, MM = Missing Value Source: Averaged Metar Reports

Daily Weather History Graph

Daily Weather History Graph

Search for Another Location

Airport or City:

Trip Planner

Search our weather history database for the weather conditions in past years. The results will help you decide how hot, cold, wet, or windy it might be!

Date:

Astronomy

Nov. 23, 2012 Rise Set
Actual Time 8:18 AM GMT 3:46 PM GMT
Civil Twilight 7:31 AM GMT 4:33 PM GMT
Nautical Twilight 6:42 AM GMT 5:22 PM GMT
Astronomical Twilight 5:56 AM GMT 6:08 PM GMT
Moon 1:43 PM GMT (11/23) 2:28 AM GMT (11/23)
Length of Visible Light 9h 01m
Length of Day
7h 28m
Waxing Gibbous, 78% of the Moon is Illuminated
Nov 23
Waxing Gibbous
Nov 28
Full
Dec 6
Last Quarter
Dec 13
New
Dec 20
First Quarter

Hourly Weather History & Observations

Time (GMT) Temp. Windchill Dew Point Humidity Pressure Visibility Wind Dir Wind Speed Gust Speed Precip Events Conditions
12:20 AM 32.0 °F 28.7 °F 30.2 °F 93% 29.24 in 6.2 mi ENE 3.5 mph - N/A   Unknown
12:50 AM 32.0 °F - 30.2 °F 93% 29.24 in 6.2 mi Calm Calm - N/A   Unknown
1:20 AM 32.0 °F - 30.2 °F 93% 29.24 in 6.2 mi Calm Calm - N/A   Unknown
1:50 AM 33.8 °F - 32.0 °F 93% 29.24 in 6.2 mi SSE 2.3 mph - N/A   Mostly Cloudy
2:20 AM 33.8 °F - 33.8 °F 100% 29.24 in 6.2 mi Calm Calm - N/A   Mostly Cloudy
2:50 AM 37.4 °F 33.8 °F 33.8 °F 87% 29.27 in 6.2 mi South 4.6 mph - N/A   Mostly Cloudy
3:20 AM 37.4 °F 32.1 °F 35.6 °F 93% 29.27 in 6.2 mi SW 6.9 mph - N/A   Scattered Clouds
3:50 AM 39.2 °F 30.8 °F 35.6 °F 87% 29.27 in 6.2 mi SW 15.0 mph - N/A   Partly Cloudy
4:20 AM 39.2 °F 32.0 °F 35.6 °F 87% 29.30 in 6.2 mi SW 11.5 mph - N/A   Scattered Clouds
4:50 AM 41.0 °F 33.9 °F 37.4 °F 87% 29.30 in 6.2 mi SW 12.7 mph - N/A Rain Light Rain Showers
5:20 AM 41.0 °F 33.9 °F 37.4 °F 87% 29.33 in 6.2 mi SSW 12.7 mph - N/A   Scattered Clouds
5:50 AM 39.2 °F 31.6 °F 35.6 °F 87% 29.33 in 6.2 mi SW 12.7 mph - N/A   Partly Cloudy
6:20 AM 39.2 °F 33.6 °F 35.6 °F 87% 29.36 in 6.2 mi SW 8.1 mph - N/A   Partly Cloudy
6:50 AM 39.2 °F 32.5 °F 35.6 °F 87% 29.36 in 6.2 mi SW 10.4 mph - N/A   Partly Cloudy
7:20 AM 39.2 °F 32.5 °F 37.4 °F 93% 29.39 in 6.2 mi SW 10.4 mph - N/A   Scattered Clouds
7:50 AM 39.2 °F 31.2 °F 35.6 °F 87% 29.42 in 6.2 mi SW 13.8 mph - N/A   Scattered Clouds
8:20 AM 39.2 °F 32.5 °F 35.6 °F 87% 29.42 in 6.2 mi SW 10.4 mph - N/A   Partly Cloudy
8:50 AM 39.2 °F 31.2 °F 35.6 °F 87% 29.44 in 6.2 mi SW 13.8 mph - N/A   Partly Cloudy
9:20 AM 41.0 °F 32.8 °F 35.6 °F 81% 29.44 in 6.2 mi SW 16.1 mph - N/A Rain Light Rain
9:50 AM 41.0 °F 33.1 °F 37.4 °F 87% 29.47 in 6.2 mi SW 15.0 mph - N/A   Scattered Clouds
10:20 AM 42.8 °F 35.4 °F 37.4 °F 81% 29.47 in 6.2 mi SW 15.0 mph - N/A   Scattered Clouds
10:50 AM 42.8 °F 35.8 °F 37.4 °F 81% 29.50 in 6.2 mi SW 13.8 mph - N/A   Scattered Clouds
11:20 AM 42.8 °F 35.8 °F 37.4 °F 81% 29.50 in 6.2 mi SW 13.8 mph - N/A   Scattered Clouds
11:50 AM 44.6 °F 37.2 °F 39.2 °F 81% 29.50 in 6.2 mi SW 17.3 mph - N/A   Partly Cloudy
12:20 PM 42.8 °F 34.8 °F 37.4 °F 81% 29.53 in 6.2 mi SW 17.3 mph - N/A   Scattered Clouds
12:50 PM 42.8 °F 35.1 °F 37.4 °F 81% 29.53 in 6.2 mi SW 16.1 mph - N/A   Scattered Clouds
1:20 PM 42.8 °F 35.4 °F 37.4 °F 81% 29.53 in 6.2 mi SW 15.0 mph - N/A   Scattered Clouds
1:50 PM 41.0 °F 33.5 °F 35.6 °F 81% 29.53 in 6.2 mi SW 13.8 mph - N/A Rain Light Rain Showers
2:20 PM 41.0 °F 33.1 °F 35.6 °F 81% 29.53 in 6.2 mi SW 15.0 mph - N/A   Scattered Clouds
2:50 PM 41.0 °F 33.1 °F 37.4 °F 87% 29.56 in 6.2 mi SW 15.0 mph - N/A Rain Light Rain Showers
3:20 PM 39.2 °F 31.6 °F 35.6 °F 87% 29.56 in 6.2 mi SW 12.7 mph - N/A Rain Light Rain Showers
3:50 PM 39.2 °F 31.2 °F 35.6 °F 87% 29.56 in 6.2 mi SW 13.8 mph - N/A Rain Light Rain Showers
4:20 PM 37.4 °F 28.9 °F 35.6 °F 93% 29.56 in 6.2 mi SW 13.8 mph - N/A Rain Light Rain Showers
4:50 PM 37.4 °F 29.8 °F 33.8 °F 87% 29.56 in 6.2 mi SW 11.5 mph - N/A   Scattered Clouds
5:20 PM 35.6 °F 28.0 °F 33.8 °F 93% 29.59 in 6.2 mi SW 10.4 mph - N/A   Partly Cloudy
5:50 PM 35.6 °F 27.5 °F 33.8 °F 93% 29.59 in 6.2 mi SW 11.5 mph - N/A   Partly Cloudy
6:20 PM 37.4 °F 28.2 °F 33.8 °F 87% 29.62 in 6.2 mi SW 16.1 mph - N/A   Partly Cloudy
6:50 PM 37.4 °F 28.9 °F 33.8 °F 87% 29.62 in 6.2 mi SW 13.8 mph - N/A   Partly Cloudy
7:20 PM 35.6 °F 29.2 °F 33.8 °F 93% 29.62 in 6.2 mi SW 8.1 mph - N/A   Partly Cloudy
7:50 PM 37.4 °F 29.3 °F 33.8 °F 87% 29.65 in 6.2 mi SW 12.7 mph - N/A   Partly Cloudy
8:20 PM 37.4 °F 28.2 °F 33.8 °F 87% 29.65 in 6.2 mi SW 16.1 mph - N/A   Partly Cloudy
8:50 PM 37.4 °F 28.9 °F 33.8 °F 87% 29.65 in 6.2 mi SW 13.8 mph - N/A   Partly Cloudy
9:20 PM 37.4 °F 28.5 °F 33.8 °F 87% 29.68 in 6.2 mi SW 15.0 mph - N/A   Partly Cloudy
9:50 PM 37.4 °F 29.3 °F 33.8 °F 87% 29.68 in 6.2 mi SW 12.7 mph - N/A   Unknown
10:20 PM 37.4 °F 29.3 °F 33.8 °F 87% 29.71 in 6.2 mi WSW 12.7 mph - N/A   Unknown
10:50 PM 39.2 °F 30.5 °F 35.6 °F 87% 29.71 in 6.2 mi SW 16.1 mph - N/A   Unknown
11:20 PM 37.4 °F 29.3 °F 33.8 °F 87% 29.71 in 6.2 mi WSW 12.7 mph - N/A   Unknown
11:50 PM 37.4 °F 28.5 °F 35.6 °F 93% 29.71 in 6.2 mi WSW 15.0 mph - N/A   Unknown